TimeEDT,TemperatureF,Dew PointF,Humidity,Sea Level PressureIn,VisibilityMPH,Wind Direction,Wind SpeedMPH,Gust SpeedMPH,PrecipitationIn,Events,Conditions,WindDirDegrees,DateUTC
12:15 AM,64.2,64.2,100,30.24,7.0,North,-9999.0,-,N/A,,Mostly Cloudy,0,2012-10-04 04:15:00
12:35 AM,63.9,63.9,100,30.25,5.0,North,-9999.0,-,N/A,,Scattered Clouds,0,2012-10-04 04:35:00
12:55 AM,64.0,64.0,100,30.25,7.0,North,-9999.0,-,N/A,,Mostly Cloudy,0,2012-10-04 04:55:00
1:15 AM,63.9,63.9,100,30.26,7.0,North,-9999.0,-,N/A,,Overcast,0,2012-10-04 05:15:00
1:35 AM,64.0,64.0,100,30.26,7.0,North,-9999.0,-,N/A,,Overcast,0,2012-10-04 05:35:00
1:55 AM,63.9,63.9,100,30.26,5.0,North,-9999.0,-,N/A,,Overcast,0,2012-10-04 05:55:00
2:15 AM,64.4,64.4,100,30.26,4.0,North,-9999.0,-,N/A,,Overcast,0,2012-10-04 06:15:00
2:35 AM,63.9,63.9,100,30.26,3.0,North,-9999.0,-,N/A,,Overcast,0,2012-10-04 06:35:00
2:55 AM,63.9,63.9,100,30.26,4.0,North,-9999.0,-,N/A,,Overcast,0,2012-10-04 06:55:00
3:15 AM,63.5,63.5,100,30.25,4.0,North,-9999.0,-,N/A,,Overcast,0,2012-10-04 07:15:00
3:35 AM,63.5,63.5,100,30.26,1.5,North,-9999.0,-,N/A,,Overcast,0,2012-10-04 07:35:00
3:55 AM,63.1,63.1,100,30.27,4.0,North,-9999.0,-,N/A,,Overcast,0,2012-10-04 07:55:00
4:15 AM,63.5,63.5,100,30.27,4.0,North,-9999.0,-,N/A,,Overcast,0,2012-10-04 08:15:00
4:35 AM,63.5,63.5,100,30.27,4.0,North,-9999.0,-,N/A,,Overcast,0,2012-10-04 08:35:00
4:55 AM,63.3,63.3,100,30.28,4.0,North,-9999.0,-,N/A,,Mostly Cloudy,0,2012-10-04 08:55:00
5:15 AM,63.1,63.1,100,30.29,4.0,North,-9999.0,-,N/A,,Overcast,0,2012-10-04 09:15:00
5:35 AM,63.3,63.3,100,30.28,5.0,North,-9999.0,-,N/A,,Overcast,0,2012-10-04 09:35:00
5:55 AM,62.8,62.8,100,30.30,5.0,North,-9999.0,-,N/A,,Mostly Cloudy,0,2012-10-04 09:55:00
6:15 AM,62.6,62.6,100,30.30,4.0,North,-9999.0,-,N/A,,Mostly Cloudy,0,2012-10-04 10:15:00
6:35 AM,62.8,62.8,100,30.30,7.0,North,-9999.0,-,N/A,,Overcast,0,2012-10-04 10:35:00
6:55 AM,62.6,62.6,100,30.30,5.0,North,-9999.0,-,N/A,,Overcast,0,2012-10-04 10:55:00
7:15 AM,62.1,62.1,100,30.31,4.0,North,-9999.0,-,N/A,,Mostly Cloudy,0,2012-10-04 11:15:00
7:35 AM,61.9,61.9,100,30.32,5.0,North,-9999.0,-,N/A,,Scattered Clouds,0,2012-10-04 11:35:00
7:55 AM,61.9,61.9,100,30.32,4.0,North,-9999.0,-,N/A,,Scattered Clouds,0,2012-10-04 11:55:00
8:15 AM,62.1,62.1,100,30.32,4.0,North,-9999.0,-,N/A,,Mostly Cloudy,0,2012-10-04 12:15:00
8:35 AM,62.2,62.2,100,30.33,5.0,North,-9999.0,-,N/A,,Scattered Clouds,0,2012-10-04 12:35:00
8:55 AM,63.1,63.1,100,30.33,7.0,North,-9999.0,-,N/A,,Clear,0,2012-10-04 12:55:00
9:15 AM,63.3,63.3,100,30.34,10.0,North,-9999.0,-,N/A,,Clear,0,2012-10-04 13:15:00
9:35 AM,64.9,62.8,93,30.34,10.0,North,-9999.0,-,N/A,,Clear,0,2012-10-04 13:35:00
9:55 AM,65.8,61.0,84,30.35,10.0,North,-9999.0,-,N/A,,Scattered Clouds,0,2012-10-04 13:55:00
10:15 AM,67.3,60.8,80,30.35,10.0,North,-9999.0,-,N/A,,Scattered Clouds,0,2012-10-04 14:15:00
10:55 AM,69.8,61.0,73,30.35,10.0,North,-9999.0,-,N/A,,Clear,0,2012-10-04 14:55:00
11:15 AM,71.2,61.2,70,30.34,10.0,North,-9999.0,-,N/A,,Clear,0,2012-10-04 15:15:00
11:35 AM,70.7,59.9,69,30.34,10.0,North,-9999.0,-,N/A,,Scattered Clouds,0,2012-10-04 15:35:00
11:55 AM,70.7,59.0,66,30.34,10.0,North,-9999.0,-,N/A,,Scattered Clouds,0,2012-10-04 15:55:00
12:15 PM,72.0,57.4,60,30.33,10.0,North,-9999.0,-,N/A,,Mostly Cloudy,0,2012-10-04 16:15:00
12:35 PM,70.7,58.3,65,30.33,10.0,North,-9999.0,-,N/A,,Mostly Cloudy,0,2012-10-04 16:35:00
12:55 PM,72.7,58.1,60,30.33,10.0,North,-9999.0,-,N/A,,Scattered Clouds,0,2012-10-04 16:55:00
1:15 PM,73.4,58.1,59,30.32,10.0,North,-9999.0,-,N/A,,Scattered Clouds,0,2012-10-04 17:15:00
1:35 PM,75.0,58.3,56,30.32,10.0,North,-9999.0,-,N/A,,Scattered Clouds,0,2012-10-04 17:35:00
1:55 PM,75.9,58.3,54,30.31,10.0,North,-9999.0,-,N/A,,Mostly Cloudy,0,2012-10-04 17:55:00
2:15 PM,76.1,57.0,51,30.30,10.0,North,-9999.0,-,N/A,,Scattered Clouds,0,2012-10-04 18:15:00
2:35 PM,76.3,56.5,50,30.30,10.0,North,-9999.0,-,N/A,,Scattered Clouds,0,2012-10-04 18:35:00
2:55 PM,75.6,56.8,52,30.30,10.0,North,-9999.0,-,N/A,,Mostly Cloudy,0,2012-10-04 18:55:00
3:15 PM,73.6,54.3,51,30.29,10.0,North,-9999.0,-,N/A,,Scattered Clouds,0,2012-10-04 19:15:00
3:35 PM,76.1,54.0,46,30.29,10.0,North,-9999.0,-,N/A,,Scattered Clouds,0,2012-10-04 19:35:00
4:15 PM,74.5,55.2,51,30.29,10.0,North,-9999.0,-,N/A,,Scattered Clouds,0,2012-10-04 20:15:00
4:35 PM,76.3,54.3,46,30.29,10.0,North,-9999.0,-,N/A,,Scattered Clouds,0,2012-10-04 20:35:00
4:55 PM,75.2,56.1,51,30.29,10.0,North,-9999.0,-,N/A,,Scattered Clouds,0,2012-10-04 20:55:00
5:15 PM,74.1,55.2,52,30.29,10.0,North,-9999.0,-,N/A,,Scattered Clouds,0,2012-10-04 21:15:00
5:35 PM,72.0,55.8,57,30.28,10.0,North,-9999.0,-,N/A,,Scattered Clouds,0,2012-10-04 21:35:00
5:55 PM,68.5,58.5,70,30.28,10.0,North,-9999.0,-,N/A,,Scattered Clouds,0,2012-10-04 21:55:00
6:15 PM,65.3,58.8,80,30.28,10.0,North,-9999.0,-,N/A,,Clear,0,2012-10-04 22:15:00
6:35 PM,63.7,59.4,86,30.28,10.0,North,-9999.0,-,N/A,,Clear,0,2012-10-04 22:35:00
6:55 PM,62.4,59.2,89,30.28,10.0,North,-9999.0,-,N/A,,Clear,0,2012-10-04 22:55:00
7:15 PM,61.2,59.0,93,30.29,10.0,North,-9999.0,-,N/A,,Clear,0,2012-10-04 23:15:00
7:35 PM,59.9,58.1,94,30.29,10.0,North,-9999.0,-,N/A,,Clear,0,2012-10-04 23:35:00
7:55 PM,59.2,58.1,96,30.29,10.0,North,-9999.0,-,N/A,,Clear,0,2012-10-04 23:55:00
8:15 PM,58.3,57.4,97,30.29,10.0,North,-9999.0,-,N/A,,Clear,0,2012-10-05 00:15:00
8:35 PM,57.7,57.0,97,30.29,10.0,North,-9999.0,-,N/A,,Clear,0,2012-10-05 00:35:00
8:55 PM,57.2,56.5,97,30.29,10.0,North,-9999.0,-,N/A,,Clear,0,2012-10-05 00:55:00
9:15 PM,56.7,56.3,99,30.29,10.0,North,-9999.0,-,N/A,,Clear,0,2012-10-05 01:15:00
9:35 PM,56.1,55.8,99,30.30,10.0,North,-9999.0,-,N/A,,Clear,0,2012-10-05 01:35:00
10:15 PM,55.4,55.4,100,30.30,7.0,North,-9999.0,-,N/A,,Clear,0,2012-10-05 02:15:00
10:35 PM,55.2,55.2,100,30.30,7.0,North,-9999.0,-,N/A,,Clear,0,2012-10-05 02:35:00
10:55 PM,55.0,55.0,100,30.30,5.0,North,-9999.0,-,N/A,,Clear,0,2012-10-05 02:55:00
11:15 PM,54.7,54.7,100,30.31,5.0,North,-9999.0,-,N/A,,Clear,0,2012-10-05 03:15:00
11:35 PM,54.7,54.7,100,30.31,5.0,North,-9999.0,-,N/A,,Clear,0,2012-10-05 03:35:00
11:55 PM,54.3,54.3,100,30.31,5.0,North,-9999.0,-,N/A,,Clear,0,2012-10-05 03:55:00